Hourly Data Report for October 05, 2017

All times are specified in Local Standard Time (LST). Add 1 hour to adjust for Daylight Saving Time where and when it is observed.

WRIGLEY A
NORTHWEST TERRITORIES

63°12'35.000" N
123°26'12.000" W
149.70 m
2204005
YWY

Related Data

No related data is available for this station

Download Data

Hourly Data (October 2017)
Hourly Data Report for October 5, 2017
Temp Definition
°C
Dew Point Temp Definition
°C
Rel Hum Definition
%
Wind Dir Definition
10's deg

Wind Spd Definition
km/h
Visibility Definition
km
Stn Press Definition
kPa
Hmdx Definition


Wind Chill Definition


Weather Definition


TIME
00:00 Legend Double Dagger 4.3 2.2 86 14 14 LegendMM 99.44     LegendNANA
01:00 Legend Double Dagger 4.0 2.0 87 14 14 LegendMM 99.36     LegendNANA
02:00 Legend Double Dagger 3.4 2.0 91 14 17 LegendMM 99.29     LegendNANA
03:00 Legend Double Dagger 2.9 1.7 92 13 13 LegendMM 99.23     LegendNANA
04:00 Legend Double Dagger 2.8 2.1 95 14 19 LegendMM 99.10     LegendNANA
05:00 Legend Double Dagger 3.0 1.8 92 14 12 LegendMM 99.04     LegendNANA
06:00 Legend Double Dagger 3.3 1.9 91 14 17 LegendMM 98.88     LegendNANA
07:00 Legend Double Dagger 3.3 2.4 94 14 18 LegendMM 98.78     LegendNANA
08:00 Legend Double Dagger 3.4 2.3 93 17 21 LegendMM 98.70     LegendNANA
09:00 Legend Double Dagger 3.4 2.4 94 16 24 LegendMM 98.61     LegendNANA
10:00 Legend Double Dagger 3.6 2.2 91 16 23 LegendMM 98.53     LegendNANA
11:00 Legend Double Dagger 3.4 2.1 92 16 18 LegendMM 98.41     LegendNANA
12:00 Legend Double Dagger 3.8 2.4 90 17 14 LegendMM 98.36     LegendNANA
13:00 Legend Double Dagger 4.2 2.6 90 17 16 LegendMM 98.28     LegendNANA
14:00 Legend Double Dagger 5.0 2.8 86 16 13 LegendMM 98.20     LegendNANA
15:00 Legend Double Dagger 5.4 2.9 84 19 12 LegendMM 98.15     LegendNANA
16:00 Legend Double Dagger 6.3 3.0 79 15 16 LegendMM 98.10     LegendNANA
17:00 Legend Double Dagger 6.5 3.2 79 14 15 LegendMM 98.03     LegendNANA
18:00 Legend Double Dagger 5.7 3.2 84 15 12 LegendMM 97.98     LegendNANA
19:00 Legend Double Dagger 3.6 2.7 94 11 8 LegendMM 97.96     LegendNANA
20:00 Legend Double Dagger 2.3 1.7 96 18 5 LegendMM 97.90     LegendNANA
21:00 Legend Double Dagger 0.4 0.0 97 2 2 LegendMM 97.83     LegendNANA
22:00 Legend Double Dagger 0.3 -0.2 96 27 2 LegendMM 97.74     LegendNANA
23:00 Legend Double Dagger -0.2 -0.4 98 19 3 LegendMM 97.66   -1 LegendNANA

Notes on Data Quality.

Legend

  • E = Estimated
  • M = Missing
  • NA = Not Available
  • ‡ = Partner data that is not subject to review by the National Climate Archives
Date modified: